Time,TemperatureF,DewpointF,PressureIn,WindDirection,WindDirectionDegrees,WindSpeedMPH,WindSpeedGustMPH,Humidity,HourlyPrecipIn,Conditions,Clouds,dailyrainin,SoftwareType,DateUTC
2013-07-01 00:06:00,58.1,53.0,29.96,NNW,346,0.0,0.0,82,0.00,,,0.00,weatherlink.com 1.10,2013-07-01 05:06:00,
2013-07-01 00:21:00,57.8,53.0,29.96,NNW,346,0.0,0.0,83,0.00,,,0.00,weatherlink.com 1.10,2013-07-01 05:21:00,
2013-07-01 00:36:00,57.4,52.0,29.95,NNW,346,0.0,0.0,81,0.00,,,0.00,weatherlink.com 1.10,2013-07-01 05:36:00,
2013-07-01 00:51:00,57.2,52.0,29.96,NNW,346,0.0,0.0,83,0.00,,,0.00,weatherlink.com 1.10,2013-07-01 05:51:00,
2013-07-01 01:06:00,56.8,52.0,29.95,NNW,346,0.0,0.0,83,0.00,,,0.00,weatherlink.com 1.10,2013-07-01 06:06:00,
2013-07-01 01:21:00,56.5,51.0,29.95,NNW,346,0.0,0.0,82,0.00,,,0.00,weatherlink.com 1.10,2013-07-01 06:21:00,
2013-07-01 01:36:00,56.2,52.0,29.95,NNW,346,0.0,0.0,84,0.00,,,0.00,weatherlink.com 1.10,2013-07-01 06:36:00,
2013-07-01 01:51:00,56.4,51.0,29.95,NNW,346,0.0,0.0,83,0.00,,,0.00,weatherlink.com 1.10,2013-07-01 06:51:00,
2013-07-01 02:06:00,56.7,51.0,29.95,NNW,346,1.0,5.0,81,0.00,,,0.00,weatherlink.com 1.10,2013-07-01 07:06:00,
2013-07-01 02:21:00,57.4,52.0,29.95,North,360,1.0,3.0,81,0.00,,,0.00,weatherlink.com 1.10,2013-07-01 07:21:00,
2013-07-01 02:36:00,57.9,52.0,29.95,North,5,0.0,3.0,80,0.00,,,0.00,weatherlink.com 1.10,2013-07-01 07:36:00,
2013-07-01 02:51:00,58.0,51.0,29.95,North,5,0.0,2.0,78,0.00,,,0.00,weatherlink.com 1.10,2013-07-01 07:51:00,
2013-07-01 03:06:00,57.7,51.0,29.96,NNE,22,0.0,3.0,79,0.00,,,0.00,weatherlink.com 1.10,2013-07-01 08:06:00,
2013-07-01 03:21:00,57.5,52.0,29.96,North,350,0.0,1.0,81,0.00,,,0.00,weatherlink.com 1.10,2013-07-01 08:21:00,
2013-07-01 03:36:00,57.3,52.0,29.96,North,351,0.0,1.0,82,0.00,,,0.00,weatherlink.com 1.10,2013-07-01 08:36:00,
2013-07-01 03:51:00,57.0,52.0,29.96,North,5,1.0,3.0,82,0.00,,,0.00,weatherlink.com 1.10,2013-07-01 08:51:00,
2013-07-01 04:06:00,56.9,52.0,29.96,North,360,0.0,3.0,82,0.00,,,0.00,weatherlink.com 1.10,2013-07-01 09:06:00,
2013-07-01 04:21:00,56.7,51.0,29.96,NNE,22,0.0,4.0,82,0.00,,,0.00,weatherlink.com 1.10,2013-07-01 09:21:00,
2013-07-01 04:36:00,56.7,52.0,29.97,NE,36,0.0,4.0,83,0.00,,,0.00,weatherlink.com 1.10,2013-07-01 09:36:00,
2013-07-01 04:51:00,56.3,52.0,29.98,North,350,0.0,2.0,84,0.00,,,0.00,weatherlink.com 1.10,2013-07-01 09:51:00,
2013-07-01 05:06:00,55.8,51.0,29.98,NNE,13,0.0,2.0,85,0.00,,,0.00,weatherlink.com 1.10,2013-07-01 10:06:00,
2013-07-01 05:21:00,55.5,51.0,29.98,NNE,15,0.0,1.0,85,0.00,,,0.00,weatherlink.com 1.10,2013-07-01 10:21:00,
2013-07-01 05:36:00,55.7,51.0,29.98,NNW,341,0.0,4.0,83,0.00,,,0.00,weatherlink.com 1.10,2013-07-01 10:36:00,
2013-07-01 05:51:00,55.8,51.0,29.98,NNE,12,2.0,3.0,83,0.00,,,0.00,weatherlink.com 1.10,2013-07-01 10:51:00,
2013-07-01 06:06:00,55.8,51.0,29.98,North,5,0.0,3.0,83,0.00,,,0.00,weatherlink.com 1.10,2013-07-01 11:06:00,
2013-07-01 06:21:00,56.0,51.0,29.99,North,5,0.0,2.0,83,0.00,,,0.00,weatherlink.com 1.10,2013-07-01 11:21:00,
2013-07-01 06:36:00,56.3,51.0,29.99,North,360,2.0,4.0,83,0.00,,,0.00,weatherlink.com 1.10,2013-07-01 11:36:00,
2013-07-01 06:51:00,57.1,52.0,29.99,North,355,0.0,7.0,82,0.00,,,0.00,weatherlink.com 1.10,2013-07-01 11:51:00,
2013-07-01 07:06:00,57.9,52.0,30.00,North,9,0.0,5.0,81,0.00,,,0.00,weatherlink.com 1.10,2013-07-01 12:06:00,
2013-07-01 07:21:00,58.7,53.0,30.00,NNE,20,0.0,5.0,80,0.00,,,0.00,weatherlink.com 1.10,2013-07-01 12:21:00,
2013-07-01 07:36:00,59.8,54.0,30.00,North,10,0.0,7.0,80,0.00,,,0.00,weatherlink.com 1.10,2013-07-01 12:36:00,
2013-07-01 07:51:00,60.7,53.0,30.00,NNE,14,2.0,7.0,77,0.00,,,0.00,weatherlink.com 1.10,2013-07-01 12:51:00,
2013-07-01 08:06:00,61.4,54.0,30.01,ESE,115,0.0,6.0,77,0.00,,,0.00,weatherlink.com 1.10,2013-07-01 13:06:00,
2013-07-01 08:21:00,62.3,54.0,30.01,SE,136,0.0,9.0,75,0.00,,,0.00,weatherlink.com 1.10,2013-07-01 13:21:00,
2013-07-01 08:36:00,63.2,54.0,30.02,NNE,13,1.0,6.0,72,0.00,,,0.00,weatherlink.com 1.10,2013-07-01 13:36:00,
2013-07-01 08:52:00,64.5,55.0,30.02,North,5,0.0,8.0,70,0.00,,,0.00,weatherlink.com 1.10,2013-07-01 13:52:00,
2013-07-01 09:07:00,65.8,56.0,30.03,NNE,29,0.0,4.0,70,0.00,,,0.00,weatherlink.com 1.10,2013-07-01 14:07:00,
2013-07-01 09:22:00,66.7,56.0,30.02,ENE,77,0.0,5.0,69,0.00,,,0.00,weatherlink.com 1.10,2013-07-01 14:22:00,
2013-07-01 09:37:00,67.3,56.0,30.02,NNE,28,0.0,8.0,67,0.00,,,0.00,weatherlink.com 1.10,2013-07-01 14:37:00,
2013-07-01 09:52:00,68.2,56.0,30.02,NNE,18,0.0,8.0,66,0.00,,,0.00,weatherlink.com 1.10,2013-07-01 14:52:00,
2013-07-01 10:07:00,69.5,57.0,30.02,NW,305,0.0,7.0,65,0.00,,,0.00,weatherlink.com 1.10,2013-07-01 15:07:00,
2013-07-01 10:22:00,70.6,56.0,30.02,North,355,3.0,9.0,61,0.00,,,0.00,weatherlink.com 1.10,2013-07-01 15:22:00,
2013-07-01 10:37:00,71.6,55.0,30.02,NNW,346,0.0,9.0,56,0.00,,,0.00,weatherlink.com 1.10,2013-07-01 15:37:00,
2013-07-01 10:52:00,72.1,56.0,30.02,NNE,15,1.0,8.0,58,0.00,,,0.00,weatherlink.com 1.10,2013-07-01 15:52:00,
2013-07-01 11:07:00,73.1,57.0,30.01,NE,40,0.0,6.0,58,0.00,,,0.00,weatherlink.com 1.10,2013-07-01 16:07:00,
2013-07-01 11:22:00,73.1,56.0,30.01,NNE,24,0.0,12.0,55,0.00,,,0.00,weatherlink.com 1.10,2013-07-01 16:22:00,
2013-07-01 11:37:00,73.5,55.0,30.01,North,355,1.0,12.0,53,0.00,,,0.00,weatherlink.com 1.10,2013-07-01 16:37:00,
2013-07-01 11:52:00,74.1,54.0,30.01,NNW,348,5.0,14.0,50,0.00,,,0.00,weatherlink.com 1.10,2013-07-01 16:52:00,
2013-07-01 12:07:00,74.4,54.0,30.01,NNE,15,4.0,10.0,49,0.00,,,0.00,weatherlink.com 1.10,2013-07-01 17:07:00,
2013-07-01 12:22:00,74.8,54.0,30.00,NE,42,2.0,8.0,48,0.00,,,0.00,weatherlink.com 1.10,2013-07-01 17:22:00,
2013-07-01 12:37:00,75.1,54.0,30.00,NE,50,4.0,11.0,48,0.00,,,0.00,weatherlink.com 1.10,2013-07-01 17:37:00,
2013-07-01 12:52:00,75.4,54.0,30.00,NE,39,2.0,13.0,48,0.00,,,0.00,weatherlink.com 1.10,2013-07-01 17:52:00,
2013-07-01 13:07:00,75.4,55.0,30.00,North,360,1.0,8.0,50,0.00,,,0.00,weatherlink.com 1.10,2013-07-01 18:07:00,
2013-07-01 13:22:00,75.5,54.0,30.00,North,5,1.0,12.0,48,0.00,,,0.00,weatherlink.com 1.10,2013-07-01 18:22:00,
2013-07-01 13:37:00,75.9,56.0,30.00,NNE,21,0.0,12.0,51,0.00,,,0.00,weatherlink.com 1.10,2013-07-01 18:37:00,
2013-07-01 13:52:00,76.3,55.0,30.00,North,350,7.0,10.0,48,0.00,,,0.00,weatherlink.com 1.10,2013-07-01 18:52:00,
2013-07-01 14:07:00,75.9,53.0,30.00,ESE,109,5.0,9.0,45,0.00,,,0.00,weatherlink.com 1.10,2013-07-01 19:07:00,
2013-07-01 14:22:00,75.9,54.0,30.01,NE,43,1.0,11.0,46,0.00,,,0.00,weatherlink.com 1.10,2013-07-01 19:22:00,
2013-07-01 14:37:00,76.1,54.0,30.00,NNW,344,1.0,7.0,46,0.00,,,0.00,weatherlink.com 1.10,2013-07-01 19:37:00,
2013-07-01 14:52:00,76.1,54.0,30.00,ENE,74,2.0,9.0,46,0.00,,,0.00,weatherlink.com 1.10,2013-07-01 19:52:00,
2013-07-01 15:07:00,76.0,55.0,30.00,North,5,5.0,9.0,48,0.00,,,0.00,weatherlink.com 1.10,2013-07-01 20:07:00,
2013-07-01 15:22:00,76.3,55.0,30.00,NNW,333,1.0,10.0,47,0.00,,,0.00,weatherlink.com 1.10,2013-07-01 20:22:00,
2013-07-01 15:37:00,76.5,54.0,30.00,NE,47,0.0,6.0,46,0.00,,,0.00,weatherlink.com 1.10,2013-07-01 20:37:00,
2013-07-01 15:52:00,76.6,53.0,30.00,North,5,5.0,8.0,44,0.00,,,0.00,weatherlink.com 1.10,2013-07-01 20:52:00,
2013-07-01 16:07:00,76.5,54.0,30.00,NE,43,1.0,6.0,45,0.00,,,0.00,weatherlink.com 1.10,2013-07-01 21:07:00,
2013-07-01 16:22:00,76.1,53.0,30.00,East,82,5.0,10.0,45,0.00,,,0.00,weatherlink.com 1.10,2013-07-01 21:22:00,
2013-07-01 16:37:00,76.0,54.0,30.00,NE,55,0.0,8.0,47,0.00,,,0.00,weatherlink.com 1.10,2013-07-01 21:37:00,
2013-07-01 16:52:00,75.8,54.0,30.00,South,180,0.0,13.0,47,0.00,,,0.00,weatherlink.com 1.10,2013-07-01 21:52:00,
2013-07-01 17:07:00,75.9,52.0,30.00,North,355,3.0,12.0,43,0.00,,,0.00,weatherlink.com 1.10,2013-07-01 22:07:00,
2013-07-01 17:22:00,75.5,53.0,30.00,NNW,333,2.0,8.0,46,0.00,,,0.00,weatherlink.com 1.10,2013-07-01 22:22:00,
2013-07-01 17:37:00,75.3,52.0,30.00,NNE,16,1.0,11.0,44,0.00,,,0.00,weatherlink.com 1.10,2013-07-01 22:37:00,
2013-07-01 17:52:00,75.4,52.0,29.99,NW,310,3.0,7.0,44,0.00,,,0.00,weatherlink.com 1.10,2013-07-01 22:52:00,
2013-07-01 18:07:00,75.1,52.0,30.00,NE,52,0.0,6.0,44,0.00,,,0.00,weatherlink.com 1.10,2013-07-01 23:07:00,
2013-07-01 18:23:00,74.8,52.0,30.00,East,87,0.0,4.0,45,0.00,,,0.00,weatherlink.com 1.10,2013-07-01 23:23:00,
2013-07-01 18:37:00,74.5,52.0,30.00,North,9,1.0,2.0,46,0.00,,,0.00,weatherlink.com 1.10,2013-07-01 23:37:00,
2013-07-01 18:53:00,74.0,50.0,30.00,ENE,58,0.0,3.0,43,0.00,,,0.00,weatherlink.com 1.10,2013-07-01 23:53:00,
2013-07-01 19:08:00,73.6,52.0,30.00,NNW,336,0.0,7.0,47,0.00,,,0.00,weatherlink.com 1.10,2013-07-02 00:08:00,
2013-07-01 19:23:00,72.9,51.0,30.00,North,5,0.0,3.0,46,0.00,,,0.00,weatherlink.com 1.10,2013-07-02 00:23:00,
2013-07-01 19:38:00,72.2,52.0,30.00,North,9,0.0,2.0,50,0.00,,,0.00,weatherlink.com 1.10,2013-07-02 00:38:00,
2013-07-01 19:53:00,71.2,53.0,30.00,North,5,0.0,1.0,53,0.00,,,0.00,weatherlink.com 1.10,2013-07-02 00:53:00,
2013-07-01 20:08:00,69.8,53.0,30.00,North,5,0.0,0.0,55,0.00,,,0.00,weatherlink.com 1.10,2013-07-02 01:08:00,
2013-07-01 20:23:00,68.7,54.0,30.00,North,5,0.0,0.0,59,0.00,,,0.00,weatherlink.com 1.10,2013-07-02 01:23:00,
2013-07-01 20:38:00,67.6,54.0,30.00,North,5,0.0,0.0,61,0.00,,,0.00,weatherlink.com 1.10,2013-07-02 01:38:00,
2013-07-01 20:53:00,66.5,53.0,30.00,North,5,0.0,0.0,63,0.00,,,0.00,weatherlink.com 1.10,2013-07-02 01:53:00,
2013-07-01 21:08:00,65.6,53.0,30.00,North,5,0.0,0.0,65,0.00,,,0.00,weatherlink.com 1.10,2013-07-02 02:08:00,
2013-07-01 21:23:00,64.8,54.0,30.00,North,5,0.0,0.0,67,0.00,,,0.00,weatherlink.com 1.10,2013-07-02 02:23:00,
2013-07-01 21:38:00,64.1,53.0,30.01,North,5,0.0,0.0,68,0.00,,,0.00,weatherlink.com 1.10,2013-07-02 02:38:00,
2013-07-01 21:53:00,63.6,53.0,30.01,North,5,0.0,0.0,69,0.00,,,0.00,weatherlink.com 1.10,2013-07-02 02:53:00,
2013-07-01 22:08:00,63.3,54.0,30.01,North,5,0.0,0.0,71,0.00,,,0.00,weatherlink.com 1.10,2013-07-02 03:08:00,
2013-07-01 22:23:00,62.9,53.0,30.02,North,5,0.0,0.0,70,0.00,,,0.00,weatherlink.com 1.10,2013-07-02 03:23:00,
2013-07-01 22:38:00,62.8,53.0,30.02,North,5,0.0,0.0,70,0.00,,,0.00,weatherlink.com 1.10,2013-07-02 03:38:00,
2013-07-01 22:53:00,63.4,54.0,30.02,North,5,0.0,0.0,71,0.00,,,0.00,weatherlink.com 1.10,2013-07-02 03:53:00,
2013-07-01 23:08:00,63.0,54.0,30.02,North,5,0.0,0.0,72,0.00,,,0.00,weatherlink.com 1.10,2013-07-02 04:08:00,
2013-07-01 23:23:00,62.7,54.0,30.02,North,5,0.0,0.0,72,0.00,,,0.00,weatherlink.com 1.10,2013-07-02 04:23:00,
2013-07-01 23:38:00,62.5,54.0,30.02,North,5,0.0,0.0,73,0.00,,,0.00,weatherlink.com 1.10,2013-07-02 04:38:00,
2013-07-01 23:53:00,62.9,54.0,30.02,North,5,0.0,0.0,72,0.00,,,0.00,weatherlink.com 1.10,2013-07-02 04:53:00,